GW1724 Weather Reports


time (UTC)temp
C
wind
direction
speed
KPH
gust
KPH
rain 1hr
cm
rain 24hr
cm
rain mn
cm
humidity
%
barometer
mb
20260510204541 26 67 3.2 16.1 0.00 0.00 0.00 43 1012.0
20260510203041 26 115 3.2 14.5 0.00 0.00 0.00 44 1012.0
20260510201540 26 68 6.4 16.1 0.00 0.00 0.00 43 1012.3
20260510200036 26 33 4.8 12.9 0.00 0.00 0.00 42 1012.7
20260510194535 26 122 1.6 16.1 0.00 0.00 0.00 42 1012.7
20260510193046 27 116 6.4 14.5 0.00 0.00 0.00 41 1012.9
20260510191549 27 129 3.2 14.5 0.00 0.00 0.00 42 1013.2
20260510190038 27 27 3.2 9.7 0.00 0.00 0.00 37 1013.3
20260510184538 28 89 6.4 17.7 0.00 0.00 0.00 33 1013.1
20260510183035 28 38 4.8 14.5 0.00 0.00 0.00 34 1013.1
20260510181541 27 76 1.6 11.3 0.00 0.00 0.00 38 1013.3
20260510180040 27 234 4.8 14.5 0.00 0.00 0.00 36 1013.4
20260510174540 27 0 4.8 12.9 0.00 0.00 0.00 37 1013.4
20260510173036 26 300 4.8 14.5 0.00 0.00 0.00 37 1013.6
20260510171537 27 258 6.4 12.9 0.00 0.00 0.00 36 1013.8
20260510170036 27 261 3.2 12.9 0.00 0.00 0.00 34 1014.0
20260510164539 26 232 3.2 11.3 0.00 0.00 0.00 39 1013.9
20260510163037 26 315 4.8 14.5 0.00 0.00 0.00 42 1013.9
20260510161536 26 272 1.6 11.3 0.00 0.00 0.00 42 1014.0
20260510160052 25 304 3.2 11.3 0.00 0.00 0.00 43 1014.0
20260510154540 25 240 1.6 11.3 0.00 0.00 0.00 44 1014.2
20260510153042 25 244 1.6 11.3 0.00 0.00 0.00 44 1014.3
20260510151540 25 262 3.2 12.9 0.00 0.00 0.00 48 1014.4
20260510150036 24 301 6.4 14.5 0.00 0.00 0.00 48 1014.3
20260510144544 24 86 1.6 6.4 0.00 0.00 0.00 52 1014.1
20260510143040 23 162 1.6 12.9 0.00 0.00 0.00 54 1014.2
20260510141538 23 111 1.6 11.3 0.00 0.00 0.00 55 1014.2
20260510140037 22 264 1.6 6.4 0.00 0.00 0.00 57 1014.1
20260510134536 22 316 1.6 4.8 0.00 0.00 0.00 59 1014.0
20260510133042 21 225 0.0 6.4 0.00 0.00 0.00 63 1014.0
20260510131542 21 248 1.6 6.4 0.00 0.00 0.00 63 1014.1
20260510130040 20 300 1.6 6.4 0.00 0.00 0.00 67 1014.0
20260510124539 19 251 0.0 6.4 0.00 0.00 0.00 71 1013.9
20260510123036 18 0 0.0 0.0 0.00 0.00 0.00 77 1013.8
20260510121536 17 0 0.0 0.0 0.00 0.00 0.00 82 1013.8
20260510120034 16 0 0.0 0.0 0.00 0.00 0.00 85 1013.6
20260510114537 15 0 0.0 0.0 0.00 0.00 0.00 88 1013.4
20260510113040 13 0 0.0 0.0 0.00 0.00 0.00 93 1013.3
20260510111547 13 0 0.0 0.0 0.00 0.00 0.00 94 1013.2
20260510110038 12 0 0.0 0.0 0.00 0.00 0.00 94 1013.1
20260510104534 12 0 0.0 0.0 0.00 0.00 0.00 94 1012.9
20260510103041 12 0 0.0 0.0 0.00 0.00 0.00 93 1012.3
20260510101537 12 0 0.0 0.0 0.00 0.00 0.00 92 1012.1
20260510100036 12 0 0.0 0.0 0.00 0.00 0.00 91 1011.9
20260510094535 13 0 0.0 0.0 0.00 0.00 0.00 93 1011.7
20260510093058 12 0 0.0 0.0 0.00 0.00 0.00 92 1011.5
20260510091540 13 0 0.0 0.0 0.00 0.00 0.00 92 1011.4
20260510090050 13 0 0.0 0.0 0.00 0.00 0.00 91 1011.3
20260510084537 13 0 0.0 0.0 0.00 0.00 0.00 91 1011.2
20260510083036 13 0 0.0 0.0 0.00 0.00 0.00 92 1011.1
20260510081555 13 0 0.0 0.0 0.00 0.00 0.00 90 1010.8
20260510080046 13 0 0.0 0.0 0.00 0.00 0.00 89 1010.8
20260510074543 14 0 0.0 0.0 0.00 0.00 0.00 89 1010.8
20260510073036 14 0 0.0 0.0 0.00 0.00 0.00 88 1010.7
20260510071537 15 0 0.0 0.0 0.00 0.00 0.00 88 1010.8
20260510070035 15 0 0.0 1.6 0.00 0.00 0.00 84 1010.8
20260510064538 16 0 0.0 3.2 0.00 0.00 0.00 83 1010.7
20260510063037 16 0 0.0 3.2 0.00 0.00 0.00 83 1010.8
20260510061536 16 0 0.0 6.4 0.00 0.00 0.00 82 1010.9
20260510060038 17 0 0.0 9.7 0.00 0.00 0.00 81 1010.8
20260510054541 16 248 1.6 9.7 0.00 0.00 0.00 82 1010.9
20260510053041 16 225 0.0 8.0 0.00 0.00 0.00 83 1010.9
20260510051537 16 0 0.0 3.2 0.00 0.00 0.00 83 1010.9
20260510050039 15 171 0.0 1.6 0.00 0.00 0.00 83 1010.9
20260510044551 15 0 0.0 0.0 0.00 0.00 0.00 83 1010.9
20260510043035 15 0 0.0 0.0 0.00 0.00 0.00 83 1010.9
20260510041537 15 0 0.0 0.0 0.00 0.00 0.00 82 1010.8
20260510040038 15 0 0.0 0.0 0.00 0.00 0.00 81 1010.8
20260510034536 15 0 0.0 1.6 0.00 0.00 0.00 82 1010.7
20260510033035 15 0 0.0 1.6 0.00 0.00 0.00 81 1010.7
20260510031541 15 0 0.0 0.0 0.00 0.00 0.00 80 1010.5
20260510030041 15 0 0.0 0.0 0.00 0.00 0.00 80 1010.4
20260510024539 15 0 0.0 0.0 0.00 0.00 0.00 79 1010.2
20260510023037 15 0 0.0 1.6 0.00 0.00 0.00 79 1010.1
20260510021541 15 0 0.0 0.0 0.00 0.00 0.00 78 1010.1
20260510020043 16 0 0.0 0.0 0.00 0.00 0.00 77 1010.1
20260510014540 16 0 0.0 0.0 0.00 0.00 0.00 77 1009.9
20260510013036 16 0 0.0 0.0 0.00 0.00 0.00 75 1009.7
20260510011536 17 0 0.0 0.0 0.00 0.00 0.00 74 1009.7
20260510010036 17 0 0.0 0.0 0.00 0.00 0.00 71 1009.5
20260510004536 18 0 0.0 0.0 0.00 0.00 0.00 69 1009.4
20260510003043 18 0 0.0 0.0 0.00 0.00 0.00 67 1009.2
20260510001536 20 0 0.0 0.0 0.00 0.00 0.00 63 1009.0
20260510000038 20 0 0.0 0.0 0.00 0.00 0.00 60 1008.9
20260509234541 21 0 0.0 0.0 0.00 0.00 0.00 58 1008.7
20260509233043 22 0 0.0 1.6 0.00 0.00 0.00 55 1008.7
20260509231544 22 0 0.0 3.2 0.00 0.00 0.00 52 1008.7
20260509230038 23 0 0.0 4.8 0.00 0.00 0.00 51 1008.6
20260509224539 23 270 1.6 6.4 0.00 0.00 0.00 50 1008.7
20260509223036 23 269 1.6 11.3 0.00 0.00 0.00 49 1008.8
20260509221539 24 288 4.8 14.5 0.00 0.00 0.00 47 1008.7
20260509220043 23 322 3.2 14.5 0.00 0.00 0.00 48 1008.7
20260509214539 23 261 3.2 11.3 0.00 0.00 0.00 50 1008.7
20260509213047 23 283 3.2 14.5 0.00 0.00 0.00 47 1008.5
20260509211543 23 242 6.4 14.5 0.00 0.00 0.00 46 1008.4
20260509210037 23 259 6.4 17.7 0.00 0.00 0.00 45 1008.4